Change the Weather History Date:

Wednesday, November 7, 2012

  Actual Average (PABN) Record (PABN)
Temperature  
Mean Temperature -12 °F -  
Max Temperature -2 °F 13 °F 33 °F (1996)
Min Temperature -22 °F 5 °F -18 °F (2006)
Degree Days  
Heating Degree Days 77    
Moisture  
Dew Point -20 °F    
Average Humidity 72    
Maximum Humidity 79    
Minimum Humidity 65    
Precipitation  
Precipitation 0.00 in - - ()
Sea Level Pressure  
Sea Level Pressure 30.58 in    
Wind  
Wind Speed 2 mph (SE)    
Max Wind Speed 16 mph    
Max Gust Speed 30 mph    
Visibility 9 miles    
Events      
Averages and records for this station are not official NWS values.
T = Trace of Precipitation, MM = Missing Value Source: NWS Daily Summary

Daily Weather History Graph

Daily Weather History Graph

Search for Another Location

Airport or City:

Trip Planner

Search our weather history database for the weather conditions in past years. The results will help you decide how hot, cold, wet, or windy it might be!

Date:

Astronomy

Nov. 07, 2012 Rise Set
Actual Time 8:34 AM AKST 3:41 PM AKST
Civil Twilight 7:36 AM AKST 4:39 PM AKST
Nautical Twilight 6:36 AM AKST 5:39 PM AKST
Astronomical Twilight 5:39 AM AKST 6:36 PM AKST
Moon No Moon Rise 2:09 PM AKST (11/7)
Length of Visible Light 9h 03m
Length of Day
7h 06m
Last Quarter, 41% of the Moon is Illuminated
Nov 7
Last Quarter
Nov 13
New
Nov 20
First Quarter
Nov 28
Full
Dec 6
Last Quarter

Hourly Weather History & Observations

Time (AKST) Temp. Windchill Dew Point Humidity Pressure Visibility Wind Dir Wind Speed Gust Speed Precip Events Conditions
12:53 AM -11.0 °F - -17.0 °F 75% 30.54 in 10.0 mi Calm Calm - N/A   Overcast
1:53 AM -13.0 °F - -18.9 °F 75% 30.55 in 10.0 mi Calm Calm - N/A   Overcast
3:53 AM -14.1 °F -23.9 °F -20.0 °F 75% 30.58 in 10.0 mi SSW 3.5 mph - N/A   Overcast
4:53 AM -14.1 °F - -20.0 °F 75% 30.58 in 10.0 mi Calm Calm - N/A   Overcast
5:53 AM -15.0 °F - -20.9 °F 75% 30.59 in 10.0 mi Calm Calm - N/A   Overcast
6:38 AM -18.4 °F - -23.8 °F 76% 30.49 in 10.0 mi Calm Calm - N/A   Scattered Clouds
6:53 AM -18.9 °F - -25.1 °F 74% 30.60 in 10.0 mi Calm Calm - N/A   Partly Cloudy
7:53 AM -22.0 °F -35.6 °F -27.9 °F 74% 30.62 in 10.0 mi South 4.6 mph - N/A   Clear
8:23 AM -22.0 °F - -29.2 °F 69% 30.51 in 6.0 mi Calm Calm - N/A   Haze
8:32 AM -22.0 °F - -29.2 °F 69% 30.51 in 4.0 mi Calm Calm - N/A   Haze
8:53 AM -22.0 °F - -27.9 °F 74% 30.63 in 3.0 mi Calm Calm - N/A   Haze
9:24 AM -22.0 °F - -29.2 °F 69% 30.52 in 10.0 mi Calm Calm - N/A   Scattered Clouds
9:53 AM -20.9 °F - -27.0 °F 73% 30.63 in 10.0 mi Calm Calm - N/A   Clear
10:03 AM -20.2 °F - -25.6 °F 76% 30.52 in 10.0 mi Calm Calm - N/A   Scattered Clouds
10:28 AM -18.4 °F - -25.6 °F 70% 30.52 in 5.0 mi Calm Calm - N/A   Haze
10:38 AM -16.6 °F - -23.8 °F 70% 30.52 in 7.0 mi Calm Calm - N/A   Partly Cloudy
10:53 AM -15.0 °F - -20.9 °F 75% 30.62 in 10.0 mi Calm Calm - N/A   Partly Cloudy
11:53 AM -9.0 °F - -15.0 °F 75% 30.62 in 10.0 mi Calm Calm - N/A   Clear
12:53 PM -7.1 °F - -14.1 °F 72% 30.61 in 10.0 mi Calm Calm - N/A   Clear
1:53 PM -8.0 °F - -14.1 °F 75% 30.61 in 10.0 mi Calm Calm - N/A   Clear
2:53 PM -14.1 °F -26.3 °F -20.0 °F 75% 30.61 in 10.0 mi South 4.6 mph - N/A   Clear
3:53 PM -16.1 °F -26.2 °F -20.9 °F 79% 30.61 in 10.0 mi SSE 3.5 mph - N/A   Clear
4:53 PM -15.0 °F - -20.0 °F 78% 30.61 in 10.0 mi Calm Calm - N/A   Clear
5:53 PM -2.9 °F -17.7 °F -11.0 °F 68% 30.60 in 9.0 mi ESE 8.1 mph 20.7 mph N/A   Clear
6:53 PM -2.9 °F -21.6 °F -11.0 °F 68% 30.61 in 9.0 mi SE 12.7 mph 20.7 mph 0.00 in   Clear
7:53 PM -2.9 °F -21.6 °F -11.0 °F 68% 30.61 in 10.0 mi ESE 12.7 mph 24.2 mph 0.00 in   Clear
8:53 PM -4.0 °F -23.7 °F -11.9 °F 69% 30.60 in 10.0 mi ESE 13.8 mph 28.8 mph 0.00 in   Clear
9:53 PM -4.0 °F -23.0 °F -11.9 °F 69% 30.61 in 10.0 mi ESE 12.7 mph 29.9 mph N/A   Clear
10:53 PM -4.0 °F -25.2 °F -13.0 °F 65% 30.60 in 10.0 mi ESE 16.1 mph 24.2 mph N/A   Clear
11:53 PM -4.0 °F -22.1 °F -13.0 °F 65% 30.61 in 10.0 mi ESE 11.5 mph 25.3 mph N/A   Clear